Вернуться в каталог

STARLINK-1524

АктивенСвязьVLEO
NORAD 46047·PAYLOAD·🇺🇸 United States

Запущен Aug 7, 2020 с Cape Canaveral Space Force Station

Loading…

Ближайшие Пролёты (ближайшие 24 часа)

TLE

СвежийSource: CelesTrak SupGP

Эпоха: Sep 14, 2026, 21:01 UTC

1 46047C 20055W   26257.87618056 -.00015090  00000+0 -48528-3 0  2579
2 46047  53.1579 313.5876 0001298  88.1926 339.0988 15.31708278    13

Отслеживайте STARLINK-1524 в реальном времени с AllMySat

Download on the App Store